Regional Weather Roundup
Issued by NWS Upton, NY

Current Version | Previous Version | Text Only | Print | Product List | Glossary On
Versions: 1 2 3 4 5 6 7 8 9 10 11 12 13 14 15 16 17 18 19 20 21 22 23 24 25 26 27 28 29 30 31 32 33 34 35 36 37 38 39 40 41 42 43 44 45 46 47 48 49 50
000 ASUS41 KOKX 221405 RWROKX REGIONAL WEATHER ROUNDUP NATIONAL WEATHER SERVICE NEW YORK NY 1000 AM EDT MON SEP 22 2014 NOTE: "FAIR" INDICATES FEW OR NO CLOUDS BELOW 12,000 FEET WITH NO SIGNIFICANT WEATHER AND/OR OBSTRUCTIONS TO VISIBILITY. NYZ071-072-176-178-NJZ106-104-221500- NEW YORK CITY METRO AREA CITY SKY/WX TMP DP RH WIND PRES REMARKS CENTRAL PARK PTSUNNY 66 51 58 VRB7 29.89R LAGUARDIA APRT MOSUNNY 67 52 58 W17G24 29.86R KENNEDY INTL MOSUNNY 70 51 51 NW14 29.86R NEWARK/LIBERTY MOSUNNY 69 52 54 W13G23 29.87R BRNX BOT. GARD N/A 66 50 55 W6 29.88R TETERBORO MOSUNNY 67 51 56 NW16G22 29.86R $$ NYZ177-179-078>081-221500- LONG ISLAND NEW YORK CITY SKY/WX TMP DP RH WIND PRES REMARKS FARMINGDALE SUNNY 68 53 58 NW15G23 29.85R ISLIP MOSUNNY 68 53 58 W16G24 29.81R SHIRLEY SUNNY 69 54 58 NW15 29.83R WESTHAMPTON MOSUNNY 71 53 52 W18G25 29.83R MONTAUK POINT N/A 69 57 65 W15G21 29.81R $$ NYZ052-065-067-221500- HUDSON VALLEY CITY SKY/WX TMP DP RH WIND PRES REMARKS WHITE PLAINS MOSUNNY 65 52 62 NW17G23 29.85R NEWBURGH MOSUNNY 64 52 63 NW17G30 29.87R MONTGOMERY SUNNY 64 49 57 NW20G31 29.86R POUGHKEEPSIE CLOUDY 66 50 56 W15G21 29.84R ALBANY MOSUNNY 58 44 60 W24G33 29.86R $$ NJZ001-105-106-008-010-013-015-019>022-104-221500- NEW JERSEY CITY SKY/WX TMP DP RH WIND PRES REMARKS NEWARK/LIBERTY MOSUNNY 69 52 54 W13G23 29.87R TETERBORO MOSUNNY 67 51 56 NW16G22 29.86R CALDWELL PTSUNNY 65 50 58 NW12G22 29.88R MORRISTOWN PTSUNNY 68 54 60 NW16G23 29.88R SOMERVILLE MOSUNNY 68 51 54 NW16G23 29.87R LINDEN FAIR 72 54 53 NW12G20 29.89R SUSSEX CLOUDY 64 50 60 NW8G18 29.90R ANDOVER N/A 61 52 72 N8 29.91R TRENTON SUNNY 68 49 50 W15G21 29.90R MILLVILLE LGT RAIN 68 50 52 NW15 29.94R ATLANTIC CITY SUNNY 68 52 56 W14G23 29.91R WRIGHTSTOWN SUNNY 68 52 56 NW15G24 29.88R TOMS RIVER SUNNY 68 50 52 NW13G21 29.89S BELMAR SUNNY 66 52 59 W18 29.88R $$ PAZ047>061-062-071-221500- EASTERN PENNSYLVANIA CITY SKY/WX TMP DP RH WIND PRES REMARKS PHILADELPHIA MOSUNNY 67 49 52 W16G24 29.93R ALLENTOWN PTSUNNY 63 49 60 NW16 29.92R SCRANTON CLOUDY 57 48 72 NW13 29.96R $$ CTZ002-004>006-009-010-012-RIZ004-006-007-MAZ004-011-015-221500- SOUTHERN NEW ENGLAND IN CT CITY SKY/WX TMP DP RH WIND PRES REMARKS BRADLEY INTL PTSUNNY 69 52 54 W15G22 29.78R HARTFORD PTSUNNY 66 52 60 W8 29.80R DANBURY MOSUNNY 65 53 65 W9G16 29.84R WTRBRY/OXFORD PTSUNNY 63 52 67 NW7G17 29.83R BRIDGEPORT SUNNY 68 54 60 W12G21 29.82R MERIDEN SUNNY 68 53 58 W6 29.81R NEW HAVEN SUNNY 69 55 60 VRB7 29.81R CHESTER FAIR 64 55 72 NW8 29.81R GROTON SUNNY 67 55 65 W12 29.79R WILLIMANTIC MOSUNNY 67 52 58 W12G22 29.79R IN RI CITY SKY/WX TMP DP RH WIND PRES REMARKS PROVIDENCE MOSUNNY 68 52 56 NW17G25 29.77R BLOCK ISLAND SUNNY 70 55 60 W14G24 29.80R WESTERLY SUNNY 69 54 58 W10 29.79R IN MA CITY SKY/WX TMP DP RH WIND PRES REMARKS BOSTON MOSUNNY 70 52 52 W16G29 29.70R WORCESTER MOSUNNY 62 50 64 W16G29 29.76R WESTFIELD PTSUNNY 66 47 50 NW17G26 29.79R PROVINCETOWN SUNNY 66 61 82 W16 29.72R NANTUCKET MOSUNNY 71 62 73 W17G24 29.75R $$ ANZ330-335-338-340-345-350-353-355-221500- COASTAL MARINE OBSERVATIONS STATION/POSITION TIME SKY/WX TEMP WIND PRES VSBY WAVE AIR SEA DIR/SP/G HT/PER (UTC) (F) (DEG/KT/KT) (MB) (MI) (FT/S) NY HARB ENTRANCE 1400 66 70 290/ 19/ 23 1011.1 5/11 4S FIRE IS 1400 70 N/A 7/11 20S FIRE ISLAND 1400 66 68 290/ 19/ 23 1010.6 7/11 23SW MTP 1400 N/A 9/11 HUDSON CANYON 1400 68 70 290/ 19/ 23 1010.9 9/11 EXECUTION ROCKS 1400 68 70 300/ 14/ 19 N/A WESTERN LI SOUND 1400 66 290/ 14/ 19 N/A 1/ 3 CENTRAL LI SOUND 1300 66 69 280/ 17/ 23 N/A 3/ 5 EASTERN LI SOUND 1300 69 68 280/ 16/ 19 N/A ROBBINS REEF 1400 65 300/ 17/ 21 1010.0 $$ >>>>>>>>>>>>>>>>>>>>>>>>>>>> KEY <<<<<<<<<<<<<<<<<<<<<<<<<<< > < > SKY/WX - SKY CONDITION/PRESENT WEATHER < > TMP - TEMPERATURE IN FAHRENHEIT < > DP - DEWPOINT IN FAHRENHEIT < > RH - RELATIVE HUMIDITY IN PERCENT < > WIND - DIRECTION AND SPEED IN MPH < > PRES - MEAN SEA LEVEL PRESSURE IN INCHES OF HG < > WCI - WIND CHILL INDEX < > VSB - VISIBILITY IN MILES < > HX - HEAT INDEX < > TC - TEMPERATURE IN CELSIUS < > VRB - VARIABLE WIND DIRECTION < > < >>>>>>>>>>>>>>>>>>>>>>>>>>>> KEY <<<<<<<<<<<<<<<<<<<<<<<<<<<

USA.gov is the U.S. government's official web portal to all federal, state and local government web resources and services.